SL-12 DEB, 39801

Orbit data source: Space-Track

SL-12 DEB, 39801 is space debris in HEO originally from a launch on Thu, 25 Sep 2008 UTC launched from the Tyuratam Missile And Space Complex (TTMTR). Debris objects in space refer to the collection of defunct objects orbiting the Earth. Examples of debris include non-operational satellites, rocket bodies, and fragments generated from explosions, collisions, or faulty payload assembly.

Loading next visibility...
Identifier
39801, 2008-046N
Orbit
HEO
Country
Flag of CISCIS
Related business
Manufacturer
Unknown
Mission
Spacecraft
Bus & Motor
Unknown
Mass
Unknown
Launch date (UTC)
2008-09-25 (17 years ago)
Launch vehicle
Unknown
Launch site
Tyuratam Missile And Space Complex (TTMTR)
Object type
Payload
Rocket body
Debris
Shape & HBR
Unknown shape, 0.2 m
Radar Cross Section
Medium (>0.1 m² and <1 m²)

Expand to show TLE details & history
Last TLE update: 2 days ago

TLE from 2 days ago
0 SL-12 DEB
1 39801U 08046N   26060.92951805  .00001053  00000-0  13969-2 0  9991
2 39801  65.0195 180.0834 5453558 240.6422  54.6261  4.71234199196176
Epoch: 2026-03-01T22:18Z
TLE epoch observation values (Epoch: 2026-03-01T22:18:30.359Z)
Latitude
Longitude
45.73461°
Altitude
8,051.426 km
Speed
5.36 km/s
True Right ascension
12h 00m 21s
True Declination
0° 00' 00"
Sunlit
Object was in full shadow at epoch
Visualization orbit readout
Latitude
Unknown
Longitude
Unknown
Altitude
Unknown
Speed
Unknown
Apparent Right ascension
Unknown
Apparent Declination
Unknown
Sunlit
N/A
Visualization observer readout
Local Sidereal Time
20:46:08
Azimuth
Unknown
Elevation
Unknown
Doppler factor
Unknown
Orbital elements
Apogee altitude
16,844.202 km
Perigee altitude
453.883 km
Semi-major axis
15,027.18 km
Eccentricity
0.54536
Inclination
65.0195°
RAAN
180.0834°
Arg. of periapsis
240.6422°
True anomaly
119.44604°
Mean anomaly
54.6261°
Eccentric anomaly
85.7883°
Mean motion
1.17822 °/min
Orbital period
305.55 mins
BSTAR
0.0013969
Loading maneuver chart data...
Computing Atmospheric mass density...
Loading historical data...
Loading historical data...
Loading historical data...
Loading historical data...
Loading historical data...
Loading historical data...
Loading historical data...

Documentation

Showing up to 5 results
|